Overview Statistics Trail Chart Weather Telemetry Raw packets
 

This is the latest recevied weather packets stored in our database for station/object N7WGJ. If no packets are shown the sender has not sent any weather packets the latest 10 day(s).

<< 42 43 44 45 46 47 48 >>
Time Temp. Humidity Pressure Rain* Wind** Luminosity Snow
1788033088 19.44° C 67% 1017.9 hPa 0 mm - - -
1788032497 18.89° C 67% 1018 hPa 0 mm - - -
1788031888 18.33° C 72% 1017.9 hPa 0 mm - - -
1788031290 18.33° C 72% 1017.8 hPa 0 mm - - -
1788030689 17.78° C 76% 1017.8 hPa 0 mm - - -
1788030101 17.78° C 75% 1017.9 hPa 0 mm - - -
1788029497 17.22° C 77% 1017.9 hPa 0 mm - - -
1788028898 17.78° C 77% 1017.9 hPa 0 mm - - -
1788028297 17.22° C 78% 1017.9 hPa 0 mm - - -
1788027692 16.67° C 78% 1017.9 hPa 0 mm - - -
1788027088 16.11° C 83% 1017.9 hPa 0 mm - - -
1788026507 15.56° C 83% 1017.9 hPa 0 mm - - -
1788025900 15.56° C 88% 1017.8 hPa 0 mm - - -
1788025297 15° C 89% 1017.7 hPa 0 mm - - -
1788024699 15° C 91% 1017.8 hPa 0 mm - - -
1788024101 14.44° C 93% 1017.8 hPa 0 mm - - -
1788023485 13.89° C 94% 1017.9 hPa 0 mm - - -
1788022905 13.89° C 94% 1017.9 hPa 0 mm - - -
1788022290 13.89° C 94% 1017.8 hPa 0 mm - - -
1788021689 13.89° C 95% 1017.8 hPa 0 mm - - -
1788021093 13.89° C 95% 1017.8 hPa 0 mm - - -
1788020496 13.89° C 95% 1017.8 hPa 0 mm - - -
1788019894 13.89° C 95% 1017.7 hPa 0 mm - - -
1788019316 13.33° C 95% 1017.5 hPa 0.51 mm - - -
1788018692 13.33° C 95% 1017.6 hPa 1.52 mm - - -

* Rain latest hour (hover to see other rain measurements)
** Current wind speed in m/s (hover to see current wind gust speed)